Time,TemperatureF,DewpointF,PressureIn,WindDirection,WindDirectionDegrees,WindSpeedMPH,WindSpeedGustMPH,Humidity,HourlyPrecipIn,Conditions,Clouds,dailyrainin,SoftwareType,DateUTC
2013-10-09 00:01:00,60.0,59.7,30.02,NE,43,3.0,7.0,99,0.02,,,0.00,VWS V14.00,2013-10-09 04:01:00,
2013-10-09 00:03:00,60.0,59.7,30.02,NNE,28,5.0,6.0,99,0.02,,,0.00,VWS V14.00,2013-10-09 04:03:00,
2013-10-09 00:04:00,60.0,59.7,30.02,NE,41,4.0,8.0,99,0.02,,,0.00,VWS V14.00,2013-10-09 04:04:00,
2013-10-09 00:06:00,60.0,59.7,30.01,NNE,33,4.0,8.0,99,0.02,,,0.00,VWS V14.00,2013-10-09 04:06:00,
2013-10-09 00:10:00,60.0,59.7,30.01,NE,51,3.0,8.0,99,0.02,,,0.00,VWS V14.00,2013-10-09 04:10:00,
2013-10-09 00:15:00,60.0,59.7,30.01,NE,36,5.0,9.0,99,0.02,,,0.00,VWS V14.00,2013-10-09 04:15:00,
2013-10-09 00:20:00,60.1,59.8,30.01,ENE,57,3.0,9.0,99,0.02,,,0.00,VWS V14.00,2013-10-09 04:20:00,
2013-10-09 00:26:00,60.1,59.8,30.00,NE,36,5.0,9.0,99,0.01,,,0.00,VWS V14.00,2013-10-09 04:26:00,
2013-10-09 00:31:00,60.1,59.8,30.00,NE,56,4.0,9.0,99,0.01,,,0.00,VWS V14.00,2013-10-09 04:31:00,
2013-10-09 00:36:00,60.1,59.8,30.00,ENE,67,5.0,9.0,99,0.00,,,0.00,VWS V14.00,2013-10-09 04:36:00,
2013-10-09 00:41:00,60.1,59.8,30.00,NE,53,3.0,9.0,99,0.00,,,0.00,VWS V14.00,2013-10-09 04:41:00,
2013-10-09 00:46:00,60.1,59.8,30.00,ENE,63,6.0,7.0,99,0.00,,,0.00,VWS V14.00,2013-10-09 04:46:00,
2013-10-09 00:51:00,60.2,59.9,30.00,ENE,61,3.0,8.0,99,0.00,,,0.00,VWS V14.00,2013-10-09 04:51:00,
2013-10-09 00:56:00,60.2,59.9,29.99,ENE,71,10.0,13.0,99,0.00,,,0.00,VWS V14.00,2013-10-09 04:56:00,
2013-10-09 01:01:00,60.2,59.9,29.99,ENE,67,6.0,13.0,99,0.00,,,0.00,VWS V14.00,2013-10-09 05:01:00,
2013-10-09 01:06:00,60.3,60.0,29.99,NE,51,4.0,8.0,99,0.00,,,0.00,VWS V14.00,2013-10-09 05:06:00,
2013-10-09 01:11:00,60.3,60.0,29.99,NE,40,5.0,6.0,99,0.00,,,0.00,VWS V14.00,2013-10-09 05:11:00,
2013-10-09 01:16:00,60.4,60.1,29.98,NE,37,5.0,11.0,99,0.00,,,0.00,VWS V14.00,2013-10-09 05:16:00,
2013-10-09 01:21:00,60.4,60.1,29.98,NE,55,3.0,5.0,99,0.00,,,0.00,VWS V14.00,2013-10-09 05:21:00,
2013-10-09 01:27:00,60.5,60.2,29.98,NE,36,3.0,6.0,99,0.00,,,0.00,VWS V14.00,2013-10-09 05:27:00,
2013-10-09 01:32:00,60.5,60.2,29.98,NE,40,4.0,5.0,99,0.00,,,0.00,VWS V14.00,2013-10-09 05:32:00,
2013-10-09 01:37:00,60.6,60.3,29.98,NNE,18,4.0,11.0,99,0.00,,,0.00,VWS V14.00,2013-10-09 05:37:00,
2013-10-09 01:42:00,60.6,60.3,29.98,ENE,67,7.0,10.0,99,0.00,,,0.00,VWS V14.00,2013-10-09 05:42:00,
2013-10-09 01:47:00,60.7,60.4,29.98,ENE,67,4.0,10.0,99,0.00,,,0.00,VWS V14.00,2013-10-09 05:47:00,
2013-10-09 01:52:00,60.7,60.4,29.98,NNE,30,3.0,6.0,99,0.00,,,0.00,VWS V14.00,2013-10-09 05:52:00,
2013-10-09 01:57:00,60.7,60.4,29.97,ENE,78,5.0,7.0,99,0.00,,,0.00,VWS V14.00,2013-10-09 05:57:00,
2013-10-09 02:02:00,60.8,60.5,29.98,ENE,61,4.0,6.0,99,0.00,,,0.00,VWS V14.00,2013-10-09 06:02:00,
2013-10-09 02:07:00,60.9,60.3,29.97,NE,53,5.0,12.0,98,0.00,,,0.00,VWS V14.00,2013-10-09 06:07:00,
2013-10-09 02:12:00,60.9,60.3,29.97,NE,49,9.0,12.0,98,0.00,,,0.00,VWS V14.00,2013-10-09 06:12:00,
2013-10-09 02:17:00,61.0,60.4,29.97,ENE,67,7.0,12.0,98,0.00,,,0.00,VWS V14.00,2013-10-09 06:17:00,
2013-10-09 02:22:00,61.0,60.4,29.97,NNE,32,6.0,7.0,98,0.00,,,0.00,VWS V14.00,2013-10-09 06:22:00,
2013-10-09 02:28:00,61.1,60.5,29.97,NE,47,9.0,10.0,98,0.00,,,0.00,VWS V14.00,2013-10-09 06:28:00,
2013-10-09 02:33:00,61.1,60.5,29.97,NE,38,4.0,12.0,98,0.00,,,0.00,VWS V14.00,2013-10-09 06:33:00,
2013-10-09 02:38:00,61.3,60.7,29.97,ENE,65,5.0,12.0,98,0.00,,,0.00,VWS V14.00,2013-10-09 06:38:00,
2013-10-09 02:43:00,61.3,60.7,29.97,NE,34,6.0,10.0,98,0.00,,,0.00,VWS V14.00,2013-10-09 06:43:00,
2013-10-09 02:48:00,61.3,60.7,29.97,North,9,3.0,10.0,98,0.00,,,0.00,VWS V14.00,2013-10-09 06:48:00,
2013-10-09 02:53:00,61.3,60.7,29.97,NNE,27,3.0,6.0,98,0.00,,,0.00,VWS V14.00,2013-10-09 06:53:00,
2013-10-09 02:58:00,61.3,60.7,29.97,NE,40,5.0,10.0,98,0.01,,,0.01,VWS V14.00,2013-10-09 06:58:00,
2013-10-09 03:03:00,61.4,60.8,29.96,NNE,28,5.0,9.0,98,0.01,,,0.01,VWS V14.00,2013-10-09 07:03:00,
2013-10-09 03:08:00,61.4,60.5,29.96,NE,40,6.0,12.0,97,0.01,,,0.01,VWS V14.00,2013-10-09 07:08:00,
2013-10-09 03:13:00,61.4,60.5,29.96,NE,55,6.0,9.0,97,0.01,,,0.01,VWS V14.00,2013-10-09 07:13:00,
2013-10-09 03:18:00,61.4,60.5,29.96,ENE,60,4.0,9.0,97,0.01,,,0.01,VWS V14.00,2013-10-09 07:18:00,
2013-10-09 03:23:00,61.4,60.5,29.96,ENE,60,4.0,11.0,97,0.01,,,0.01,VWS V14.00,2013-10-09 07:23:00,
2013-10-09 03:29:00,61.4,60.5,29.96,NE,39,5.0,11.0,97,0.01,,,0.01,VWS V14.00,2013-10-09 07:29:00,
2013-10-09 03:34:00,61.5,60.6,29.96,NE,34,5.0,13.0,97,0.01,,,0.01,VWS V14.00,2013-10-09 07:34:00,
2013-10-09 03:39:00,61.5,60.6,29.96,NNE,28,10.0,13.0,97,0.01,,,0.01,VWS V14.00,2013-10-09 07:39:00,
2013-10-09 03:44:00,61.5,60.6,29.96,NNE,32,6.0,9.0,97,0.01,,,0.01,VWS V14.00,2013-10-09 07:44:00,
2013-10-09 03:49:00,61.5,60.6,29.95,NE,44,5.0,10.0,97,0.01,,,0.01,VWS V14.00,2013-10-09 07:49:00,
2013-10-09 03:54:00,61.5,60.6,29.95,NE,46,4.0,10.0,97,0.01,,,0.01,VWS V14.00,2013-10-09 07:54:00,
2013-10-09 03:59:00,61.4,60.5,29.95,NE,44,6.0,12.0,97,0.01,,,0.01,VWS V14.00,2013-10-09 07:59:00,
2013-10-09 04:04:00,61.4,60.5,29.96,ENE,59,6.0,10.0,97,0.00,,,0.01,VWS V14.00,2013-10-09 08:04:00,
2013-10-09 04:09:00,61.4,60.5,29.96,NE,55,4.0,10.0,97,0.00,,,0.01,VWS V14.00,2013-10-09 08:09:00,
2013-10-09 04:14:00,61.4,60.5,29.96,NE,35,2.0,12.0,97,0.00,,,0.01,VWS V14.00,2013-10-09 08:14:00,
2013-10-09 04:19:00,61.4,60.5,29.95,NE,44,6.0,12.0,97,0.00,,,0.01,VWS V14.00,2013-10-09 08:19:00,
2013-10-09 04:24:00,61.3,60.4,29.96,NE,41,4.0,7.0,97,0.00,,,0.01,VWS V14.00,2013-10-09 08:24:00,
2013-10-09 04:30:00,61.3,60.4,29.96,NE,42,3.0,9.0,97,0.00,,,0.01,VWS V14.00,2013-10-09 08:30:00,
2013-10-09 04:35:00,61.3,60.4,29.96,NE,46,5.0,10.0,97,0.00,,,0.01,VWS V14.00,2013-10-09 08:35:00,
2013-10-09 04:40:00,61.3,60.4,29.96,NE,38,1.0,10.0,97,0.00,,,0.01,VWS V14.00,2013-10-09 08:40:00,
2013-10-09 04:45:00,61.2,60.3,29.96,NNE,28,5.0,10.0,97,0.00,,,0.01,VWS V14.00,2013-10-09 08:45:00,
2013-10-09 04:50:00,61.2,60.0,29.96,ENE,58,5.0,10.0,96,0.00,,,0.01,VWS V14.00,2013-10-09 08:50:00,
2013-10-09 04:55:00,61.1,60.0,29.96,NE,40,3.0,7.0,96,0.00,,,0.01,VWS V14.00,2013-10-09 08:55:00,
2013-10-09 05:00:00,61.1,60.2,29.96,NE,37,4.0,10.0,97,0.00,,,0.01,VWS V14.00,2013-10-09 09:00:00,
2013-10-09 05:05:00,61.0,60.2,29.96,NE,45,3.0,7.0,97,0.00,,,0.01,VWS V14.00,2013-10-09 09:05:00,
2013-10-09 05:10:00,61.0,59.9,29.96,NNE,24,4.0,11.0,96,0.00,,,0.01,VWS V14.00,2013-10-09 09:10:00,
2013-10-09 05:15:00,61.0,60.2,29.96,NE,38,4.0,8.0,97,0.00,,,0.01,VWS V14.00,2013-10-09 09:15:00,
2013-10-09 05:20:00,61.1,60.2,29.96,NNE,28,6.0,12.0,97,0.00,,,0.01,VWS V14.00,2013-10-09 09:20:00,
2013-10-09 05:25:00,61.1,60.2,29.96,NNE,32,4.0,10.0,97,0.00,,,0.01,VWS V14.00,2013-10-09 09:25:00,
2013-10-09 05:31:00,61.1,60.0,29.97,North,5,4.0,10.0,96,0.00,,,0.01,VWS V14.00,2013-10-09 09:31:00,
2013-10-09 05:36:00,61.2,60.0,29.96,NE,44,5.0,7.0,96,0.00,,,0.01,VWS V14.00,2013-10-09 09:36:00,
2013-10-09 05:41:00,61.2,60.0,29.97,NE,48,3.0,10.0,96,0.00,,,0.01,VWS V14.00,2013-10-09 09:41:00,
2013-10-09 06:20:00,61.4,60.2,29.96,NE,45,5.0,10.0,96,0.00,,,0.01,VWS V14.00,2013-10-09 10:20:00,
2013-10-09 06:37:00,61.4,60.2,29.96,NE,42,3.0,6.0,96,0.00,,,0.01,VWS V14.00,2013-10-09 10:37:00,
2013-10-09 06:42:00,61.4,60.2,29.96,NE,47,4.0,7.0,96,0.00,,,0.01,VWS V14.00,2013-10-09 10:42:00,
2013-10-09 06:47:00,61.4,60.2,29.97,NE,41,4.0,13.0,96,0.00,,,0.01,VWS V14.00,2013-10-09 10:47:00,
2013-10-09 06:52:00,61.4,60.2,29.97,NNE,32,2.0,4.0,96,0.00,,,0.01,VWS V14.00,2013-10-09 10:52:00,
2013-10-09 06:58:00,61.4,60.2,29.97,NE,53,3.0,6.0,96,0.00,,,0.01,VWS V14.00,2013-10-09 10:58:00,
2013-10-09 07:03:00,61.3,60.4,29.97,NNE,32,3.0,5.0,97,0.00,,,0.01,VWS V14.00,2013-10-09 11:03:00,
2013-10-09 07:08:00,61.3,60.4,29.97,NE,51,3.0,5.0,97,0.00,,,0.01,VWS V14.00,2013-10-09 11:08:00,
2013-10-09 07:13:00,61.3,60.2,29.97,ENE,68,2.0,4.0,96,0.00,,,0.01,VWS V14.00,2013-10-09 11:13:00,
2013-10-09 07:18:00,61.2,60.0,29.97,NNE,28,3.0,6.0,96,0.00,,,0.01,VWS V14.00,2013-10-09 11:18:00,
2013-10-09 07:38:00,61.1,60.0,29.98,NNE,33,3.0,5.0,96,0.00,,,0.01,VWS V14.00,2013-10-09 11:38:00,
2013-10-09 07:43:00,61.1,60.0,29.98,NE,40,3.0,5.0,96,0.00,,,0.01,VWS V14.00,2013-10-09 11:43:00,
2013-10-09 07:48:00,61.1,60.2,29.98,NNE,32,3.0,6.0,97,0.00,,,0.01,VWS V14.00,2013-10-09 11:48:00,
2013-10-09 07:53:00,61.1,60.2,29.98,NNE,28,5.0,6.0,97,0.00,,,0.01,VWS V14.00,2013-10-09 11:53:00,
2013-10-09 07:58:00,61.1,60.0,29.98,NE,56,5.0,6.0,96,0.00,,,0.01,VWS V14.00,2013-10-09 11:58:00,
2013-10-09 08:03:00,61.1,60.0,29.98,NE,40,2.0,5.0,96,0.00,,,0.01,VWS V14.00,2013-10-09 12:03:00,
2013-10-09 08:05:00,61.1,60.0,29.98,NNE,32,4.0,5.0,96,0.00,,,0.01,VWS V14.00,2013-10-09 12:05:00,
2013-10-09 08:10:00,61.1,60.0,29.98,NE,53,3.0,6.0,96,0.00,,,0.01,VWS V14.00,2013-10-09 12:10:00,
2013-10-09 08:15:00,61.2,60.0,29.98,NNE,27,3.0,7.0,96,0.00,,,0.01,VWS V14.00,2013-10-09 12:15:00,
2013-10-09 08:20:00,61.2,60.0,29.98,NE,40,3.0,7.0,96,0.00,,,0.01,VWS V14.00,2013-10-09 12:20:00,
2013-10-09 08:25:00,61.2,60.0,29.99,NNE,26,5.0,5.0,96,0.00,,,0.01,VWS V14.00,2013-10-09 12:25:00,
2013-10-09 08:30:00,61.3,60.2,29.99,NNE,30,3.0,7.0,96,0.00,,,0.01,VWS V14.00,2013-10-09 12:30:00,
2013-10-09 08:35:00,61.3,60.2,29.99,NE,38,4.0,6.0,96,0.00,,,0.01,VWS V14.00,2013-10-09 12:35:00,
2013-10-09 08:40:00,61.4,60.2,29.99,NE,34,4.0,6.0,96,0.00,,,0.01,VWS V14.00,2013-10-09 12:40:00,
2013-10-09 08:45:00,61.4,60.2,29.99,NNE,33,2.0,6.0,96,0.00,,,0.01,VWS V14.00,2013-10-09 12:45:00,
2013-10-09 08:50:00,61.4,60.0,29.99,NE,45,3.0,8.0,95,0.00,,,0.01,VWS V14.00,2013-10-09 12:50:00,
2013-10-09 08:55:00,61.5,60.1,30.00,NE,42,3.0,5.0,95,0.00,,,0.01,VWS V14.00,2013-10-09 12:55:00,
2013-10-09 09:00:00,61.5,60.3,30.00,NE,34,3.0,9.0,96,0.00,,,0.01,VWS V14.00,2013-10-09 13:00:00,
2013-10-09 09:05:00,61.5,60.1,30.00,NE,44,3.0,6.0,95,0.00,,,0.01,VWS V14.00,2013-10-09 13:05:00,
2013-10-09 09:10:00,61.6,60.5,30.00,NNE,29,3.0,6.0,96,0.00,,,0.01,VWS V14.00,2013-10-09 13:10:00,
2013-10-09 09:15:00,61.7,60.5,30.00,NNE,25,1.0,6.0,96,0.00,,,0.01,VWS V14.00,2013-10-09 13:15:00,
2013-10-09 09:21:00,61.8,60.7,30.00,NE,51,3.0,8.0,96,0.00,,,0.01,VWS V14.00,2013-10-09 13:21:00,
2013-10-09 09:26:00,61.8,60.4,30.00,NE,35,2.0,7.0,95,0.00,,,0.01,VWS V14.00,2013-10-09 13:26:00,
2013-10-09 09:31:00,62.0,60.6,30.00,NE,40,6.0,7.0,95,0.00,,,0.01,VWS V14.00,2013-10-09 13:31:00,
2013-10-09 09:36:00,62.0,60.6,30.00,NE,41,3.0,9.0,95,0.00,,,0.01,VWS V14.00,2013-10-09 13:36:00,
2013-10-09 09:41:00,62.1,60.7,30.00,NE,44,3.0,9.0,95,0.00,,,0.01,VWS V14.00,2013-10-09 13:41:00,
2013-10-09 09:46:00,62.3,60.8,30.00,NNE,13,3.0,10.0,95,0.00,,,0.01,VWS V14.00,2013-10-09 13:46:00,
2013-10-09 09:51:00,62.4,61.0,30.00,NE,44,3.0,10.0,95,0.00,,,0.01,VWS V14.00,2013-10-09 13:51:00,
2013-10-09 09:56:00,62.5,61.0,30.00,NE,51,10.0,12.0,95,0.00,,,0.01,VWS V14.00,2013-10-09 13:56:00,
2013-10-09 10:01:00,62.5,61.0,30.00,NE,42,5.0,12.0,95,0.00,,,0.01,VWS V14.00,2013-10-09 14:01:00,
2013-10-09 10:06:00,62.6,61.2,30.00,NNE,26,5.0,6.0,95,0.00,,,0.01,VWS V14.00,2013-10-09 14:06:00,
2013-10-09 10:11:00,62.7,61.2,30.00,North,9,4.0,10.0,95,0.00,,,0.01,VWS V14.00,2013-10-09 14:11:00,
2013-10-09 10:16:00,62.9,61.5,30.00,NNE,32,5.0,9.0,95,0.00,,,0.01,VWS V14.00,2013-10-09 14:16:00,
2013-10-09 10:21:00,63.1,61.7,29.99,NE,34,4.0,9.0,95,0.00,,,0.01,VWS V14.00,2013-10-09 14:21:00,
2013-10-09 10:26:00,63.3,61.5,29.99,NE,40,6.0,6.0,94,0.00,,,0.01,VWS V14.00,2013-10-09 14:26:00,
2013-10-09 10:31:00,63.4,61.7,29.99,NE,36,7.0,7.0,94,0.00,,,0.01,VWS V14.00,2013-10-09 14:31:00,
2013-10-09 10:36:00,63.6,61.8,29.99,NE,37,6.0,7.0,94,0.00,,,0.01,VWS V14.00,2013-10-09 14:36:00,
2013-10-09 10:41:00,63.6,61.8,29.99,NE,36,3.0,3.0,94,0.00,,,0.01,VWS V14.00,2013-10-09 14:41:00,
2013-10-09 10:46:00,63.7,62.0,29.99,NNE,26,5.0,9.0,94,0.00,,,0.01,VWS V14.00,2013-10-09 14:46:00,
2013-10-09 10:51:00,63.9,62.1,29.99,NNE,25,5.0,7.0,94,0.00,,,0.01,VWS V14.00,2013-10-09 14:51:00,
2013-10-09 10:56:00,64.1,62.3,29.99,NE,44,3.0,7.0,94,0.00,,,0.01,VWS V14.00,2013-10-09 14:56:00,
2013-10-09 11:01:00,64.2,62.1,29.99,NNE,32,6.0,8.0,93,0.00,,,0.01,VWS V14.00,2013-10-09 15:01:00,
2013-10-09 11:06:00,64.4,62.3,29.99,NE,40,2.0,10.0,93,0.00,,,0.01,VWS V14.00,2013-10-09 15:06:00,
2013-10-09 11:11:00,64.7,62.6,29.98,NNE,28,4.0,5.0,93,0.00,,,0.01,VWS V14.00,2013-10-09 15:11:00,
2013-10-09 11:16:00,64.9,62.8,29.98,NNE,29,5.0,11.0,93,0.00,,,0.01,VWS V14.00,2013-10-09 15:16:00,
2013-10-09 11:21:00,65.1,63.0,29.98,NE,36,3.0,4.0,93,0.00,,,0.01,VWS V14.00,2013-10-09 15:21:00,
2013-10-09 11:27:00,65.4,63.0,29.98,NE,43,4.0,7.0,92,0.00,,,0.01,VWS V14.00,2013-10-09 15:27:00,
2013-10-09 11:32:00,65.6,63.2,29.98,NNE,28,4.0,5.0,92,0.00,,,0.01,VWS V14.00,2013-10-09 15:32:00,
2013-10-09 11:37:00,65.9,63.2,29.98,NE,37,3.0,5.0,91,0.00,,,0.01,VWS V14.00,2013-10-09 15:37:00,
2013-10-09 11:42:00,66.1,63.4,29.98,NNE,24,4.0,4.0,91,0.00,,,0.01,VWS V14.00,2013-10-09 15:42:00,
2013-10-09 11:47:00,66.3,63.6,29.98,NNE,26,2.0,7.0,91,0.00,,,0.01,VWS V14.00,2013-10-09 15:47:00,
2013-10-09 11:52:00,66.4,63.7,29.98,NE,38,4.0,4.0,91,0.00,,,0.01,VWS V14.00,2013-10-09 15:52:00,
2013-10-09 11:57:00,66.5,63.5,29.98,NNE,22,4.0,6.0,90,0.00,,,0.01,VWS V14.00,2013-10-09 15:57:00,
2013-10-09 12:02:00,66.7,63.7,29.98,NNE,28,4.0,4.0,90,0.00,,,0.01,VWS V14.00,2013-10-09 16:02:00,
2013-10-09 12:07:00,66.7,63.7,29.98,NNE,32,4.0,7.0,90,0.00,,,0.01,VWS V14.00,2013-10-09 16:07:00,
2013-10-09 12:12:00,66.5,63.5,29.98,NNE,25,5.0,9.0,90,0.00,,,0.01,VWS V14.00,2013-10-09 16:12:00,
2013-10-09 12:17:00,66.5,63.2,29.98,NE,38,5.0,10.0,89,0.00,,,0.01,VWS V14.00,2013-10-09 16:17:00,
2013-10-09 12:22:00,66.7,63.7,29.98,NNE,33,5.0,6.0,90,0.00,,,0.01,VWS V14.00,2013-10-09 16:22:00,
2013-10-09 12:27:00,66.6,63.6,29.97,NNE,27,3.0,9.0,90,0.00,,,0.01,VWS V14.00,2013-10-09 16:27:00,
2013-10-09 12:32:00,66.7,63.7,29.97,NE,49,6.0,10.0,90,0.00,,,0.01,VWS V14.00,2013-10-09 16:32:00,
2013-10-09 12:37:00,66.7,63.7,29.97,NNE,30,6.0,11.0,90,0.00,,,0.01,VWS V14.00,2013-10-09 16:37:00,
2013-10-09 12:42:00,66.7,63.7,29.97,ENE,64,3.0,6.0,90,0.00,,,0.01,VWS V14.00,2013-10-09 16:42:00,
2013-10-09 12:47:00,66.8,64.4,29.97,NE,42,5.0,8.0,92,0.00,,,0.01,VWS V14.00,2013-10-09 16:47:00,
2013-10-09 12:52:00,66.9,63.9,29.97,NNE,26,4.0,4.0,90,0.00,,,0.01,VWS V14.00,2013-10-09 16:52:00,
2013-10-09 12:57:00,67.1,63.8,29.97,NNE,15,4.0,11.0,89,0.00,,,0.01,VWS V14.00,2013-10-09 16:57:00,
2013-10-09 13:02:00,67.3,64.3,29.97,NNE,17,4.0,6.0,90,0.00,,,0.01,VWS V14.00,2013-10-09 17:02:00,
2013-10-09 13:07:00,67.4,64.1,29.97,NE,44,7.0,9.0,89,0.00,,,0.01,VWS V14.00,2013-10-09 17:07:00,
2013-10-09 13:12:00,67.4,64.1,29.97,NNE,24,6.0,7.0,89,0.00,,,0.01,VWS V14.00,2013-10-09 17:12:00,
2013-10-09 13:17:00,67.3,64.0,29.97,NE,51,4.0,9.0,89,0.00,,,0.01,VWS V14.00,2013-10-09 17:17:00,
2013-10-09 13:22:00,67.2,63.8,29.97,NNE,33,6.0,9.0,89,0.00,,,0.01,VWS V14.00,2013-10-09 17:22:00,
2013-10-09 13:28:00,67.1,63.8,29.96,NE,38,6.0,10.0,89,0.00,,,0.01,VWS V14.00,2013-10-09 17:28:00,
2013-10-09 13:33:00,67.0,63.7,29.96,NNE,23,3.0,4.0,89,0.00,,,0.01,VWS V14.00,2013-10-09 17:33:00,
2013-10-09 13:38:00,66.8,63.5,29.96,NNE,29,3.0,7.0,89,0.00,,,0.01,VWS V14.00,2013-10-09 17:38:00,
2013-10-09 13:43:00,66.5,63.2,29.96,NNE,15,3.0,6.0,89,0.00,,,0.01,VWS V14.00,2013-10-09 17:43:00,
2013-10-09 13:48:00,66.1,63.4,29.96,NNE,29,2.0,6.0,91,0.00,,,0.01,VWS V14.00,2013-10-09 17:48:00,
2013-10-09 13:53:00,65.8,63.1,29.96,NE,36,4.0,6.0,91,0.00,,,0.01,VWS V14.00,2013-10-09 17:53:00,
2013-10-09 13:58:00,65.6,63.2,29.96,NNE,33,3.0,6.0,92,0.00,,,0.01,VWS V14.00,2013-10-09 17:58:00,
2013-10-09 14:03:00,65.5,62.8,29.96,NNE,26,3.0,5.0,91,0.00,,,0.01,VWS V14.00,2013-10-09 18:03:00,
2013-10-09 14:08:00,65.5,62.8,29.96,North,9,3.0,7.0,91,0.00,,,0.01,VWS V14.00,2013-10-09 18:08:00,
2013-10-09 14:13:00,65.5,62.8,29.95,NE,38,6.0,7.0,91,0.00,,,0.01,VWS V14.00,2013-10-09 18:13:00,
2013-10-09 14:18:00,65.5,62.5,29.95,NE,51,6.0,10.0,90,0.00,,,0.01,VWS V14.00,2013-10-09 18:18:00,
2013-10-09 15:00:00,65.5,62.8,29.95,NNE,22,4.0,8.0,91,0.00,,,0.01,VWS V14.00,2013-10-09 19:00:00,
2013-10-09 15:14:00,65.6,62.9,29.96,NNE,20,2.0,4.0,91,0.00,,,0.01,VWS V14.00,2013-10-09 19:14:00,
2013-10-09 15:19:00,65.6,62.6,29.96,NNE,30,5.0,11.0,90,0.00,,,0.01,VWS V14.00,2013-10-09 19:19:00,
2013-10-09 15:24:00,65.6,62.6,29.96,NNE,13,4.0,6.0,90,0.00,,,0.01,VWS V14.00,2013-10-09 19:24:00,
2013-10-09 15:29:00,65.7,62.7,29.96,NNE,30,2.0,7.0,90,0.00,,,0.01,VWS V14.00,2013-10-09 19:29:00,
2013-10-09 15:34:00,65.7,62.7,29.96,NE,38,4.0,12.0,90,0.00,,,0.01,VWS V14.00,2013-10-09 19:34:00,
2013-10-09 15:39:00,65.7,62.7,29.96,NE,37,3.0,12.0,90,0.00,,,0.01,VWS V14.00,2013-10-09 19:39:00,
2013-10-09 16:30:00,65.9,62.6,29.95,NNE,22,5.0,10.0,89,0.00,,,0.01,VWS V14.00,2013-10-09 20:30:00,
2013-10-09 16:42:00,65.7,62.7,29.95,NNE,26,2.0,3.0,90,0.00,,,0.01,VWS V14.00,2013-10-09 20:42:00,
2013-10-09 16:47:00,65.5,62.5,29.95,NNE,33,4.0,9.0,90,0.00,,,0.01,VWS V14.00,2013-10-09 20:47:00,
2013-10-09 16:52:00,65.4,62.4,29.95,North,355,5.0,12.0,90,0.00,,,0.01,VWS V14.00,2013-10-09 20:52:00,
2013-10-09 16:57:00,65.3,62.3,29.95,NE,35,5.0,12.0,90,0.00,,,0.01,VWS V14.00,2013-10-09 20:57:00,
2013-10-09 17:02:00,65.3,62.3,29.95,NNE,24,5.0,7.0,90,0.00,,,0.01,VWS V14.00,2013-10-09 21:02:00,
2013-10-09 17:08:00,65.2,62.2,29.95,North,11,5.0,7.0,90,0.00,,,0.01,VWS V14.00,2013-10-09 21:08:00,
2013-10-09 17:30:00,64.8,62.1,29.95,NNE,22,4.0,8.0,91,0.00,,,0.01,VWS V14.00,2013-10-09 21:30:00,
2013-10-09 17:47:00,64.5,62.1,29.95,North,355,4.0,4.0,92,0.00,,,0.01,VWS V14.00,2013-10-09 21:47:00,
2013-10-09 17:52:00,64.4,62.0,29.95,NE,37,5.0,6.0,92,0.00,,,0.01,VWS V14.00,2013-10-09 21:52:00,
2013-10-09 17:57:00,64.2,62.1,29.95,NE,34,5.0,7.0,93,0.00,,,0.01,VWS V14.00,2013-10-09 21:57:00,
2013-10-09 18:02:00,63.8,62.0,29.95,NE,46,5.0,5.0,94,0.00,,,0.01,VWS V14.00,2013-10-09 22:02:00,
2013-10-09 18:07:00,63.4,62.0,29.94,NNE,18,3.0,7.0,95,0.00,,,0.01,VWS V14.00,2013-10-09 22:07:00,
2013-10-09 18:12:00,63.3,61.8,29.94,NNE,15,4.0,5.0,95,0.00,,,0.01,VWS V14.00,2013-10-09 22:12:00,
2013-10-09 18:17:00,63.1,61.9,29.95,NNE,26,6.0,7.0,96,0.00,,,0.01,VWS V14.00,2013-10-09 22:17:00,
2013-10-09 18:22:00,63.0,61.8,29.95,NNE,32,5.0,6.0,96,0.00,,,0.01,VWS V14.00,2013-10-09 22:22:00,
2013-10-09 18:27:00,62.8,61.7,29.95,NE,35,6.0,7.0,96,0.00,,,0.01,VWS V14.00,2013-10-09 22:27:00,
2013-10-09 18:32:00,62.7,61.5,29.95,NE,34,4.0,9.0,96,0.00,,,0.01,VWS V14.00,2013-10-09 22:32:00,
2013-10-09 18:37:00,62.7,61.5,29.95,NE,52,6.0,10.0,96,0.00,,,0.01,VWS V14.00,2013-10-09 22:37:00,
2013-10-09 18:42:00,62.7,61.5,29.95,NNE,26,5.0,5.0,96,0.00,,,0.01,VWS V14.00,2013-10-09 22:42:00,
2013-10-09 18:47:00,62.7,61.5,29.95,NNE,29,3.0,7.0,96,0.00,,,0.01,VWS V14.00,2013-10-09 22:47:00,
2013-10-09 18:52:00,62.7,61.5,29.94,NNE,32,3.0,6.0,96,0.00,,,0.01,VWS V14.00,2013-10-09 22:52:00,
2013-10-09 18:57:00,62.7,61.5,29.94,NNE,32,3.0,6.0,96,0.00,,,0.01,VWS V14.00,2013-10-09 22:57:00,
2013-10-09 19:02:00,62.7,61.5,29.94,NNE,29,3.0,6.0,96,0.00,,,0.01,VWS V14.00,2013-10-09 23:02:00,
2013-10-09 19:07:00,62.7,61.5,29.94,NNE,30,3.0,9.0,96,0.00,,,0.01,VWS V14.00,2013-10-09 23:07:00,
2013-10-09 19:12:00,62.7,61.2,29.94,NE,44,6.0,6.0,95,0.00,,,0.01,VWS V14.00,2013-10-09 23:12:00,
2013-10-09 19:17:00,62.8,61.3,29.94,NNE,31,3.0,14.0,95,0.00,,,0.01,VWS V14.00,2013-10-09 23:17:00,
2013-10-09 19:22:00,62.8,61.3,29.94,NNE,33,5.0,6.0,95,0.00,,,0.01,VWS V14.00,2013-10-09 23:22:00,
2013-10-09 19:28:00,62.9,61.2,29.95,NNE,29,4.0,11.0,94,0.00,,,0.01,VWS V14.00,2013-10-09 23:28:00,
2013-10-09 19:33:00,62.9,61.2,29.95,NE,34,4.0,7.0,94,0.00,,,0.01,VWS V14.00,2013-10-09 23:33:00,
2013-10-09 19:38:00,62.9,61.2,29.95,NE,41,4.0,7.0,94,0.00,,,0.01,VWS V14.00,2013-10-09 23:38:00,
2013-10-09 19:43:00,62.9,60.8,29.95,NNE,21,5.0,10.0,93,0.00,,,0.01,VWS V14.00,2013-10-09 23:43:00,
2013-10-09 19:48:00,62.9,60.8,29.95,NE,55,6.0,10.0,93,0.00,,,0.01,VWS V14.00,2013-10-09 23:48:00,
2013-10-09 19:53:00,62.9,60.8,29.95,NNE,25,4.0,6.0,93,0.00,,,0.01,VWS V14.00,2013-10-09 23:53:00,
2013-10-09 19:58:00,62.9,60.8,29.95,NNE,21,4.0,6.0,93,0.00,,,0.01,VWS V14.00,2013-10-09 23:58:00,
2013-10-09 20:03:00,62.8,60.8,29.95,NE,36,4.0,8.0,93,0.00,,,0.01,VWS V14.00,2013-10-10 00:03:00,
2013-10-09 20:08:00,62.8,60.8,29.94,NNE,29,5.0,8.0,93,0.00,,,0.01,VWS V14.00,2013-10-10 00:08:00,
2013-10-09 20:13:00,62.7,60.7,29.94,NNE,33,5.0,9.0,93,0.00,,,0.01,VWS V14.00,2013-10-10 00:13:00,
2013-10-09 20:18:00,62.7,60.7,29.94,NNE,26,4.0,12.0,93,0.00,,,0.01,VWS V14.00,2013-10-10 00:18:00,
2013-10-09 20:23:00,62.7,60.7,29.95,NE,41,4.0,6.0,93,0.00,,,0.01,VWS V14.00,2013-10-10 00:23:00,
2013-10-09 20:28:00,62.7,60.7,29.95,NE,42,6.0,9.0,93,0.00,,,0.01,VWS V14.00,2013-10-10 00:28:00,
2013-10-09 20:34:00,62.6,60.5,29.95,NNE,21,7.0,9.0,93,0.00,,,0.01,VWS V14.00,2013-10-10 00:34:00,
2013-10-09 20:39:00,62.6,60.5,29.95,ENE,76,5.0,9.0,93,0.00,,,0.01,VWS V14.00,2013-10-10 00:39:00,
2013-10-09 20:44:00,62.6,60.5,29.95,NNE,23,5.0,10.0,93,0.00,,,0.01,VWS V14.00,2013-10-10 00:44:00,
2013-10-09 20:49:00,62.5,60.5,29.94,NNE,13,4.0,10.0,93,0.00,,,0.01,VWS V14.00,2013-10-10 00:49:00,
2013-10-09 20:54:00,62.5,60.5,29.94,NE,36,5.0,9.0,93,0.00,,,0.01,VWS V14.00,2013-10-10 00:54:00,
2013-10-09 20:59:00,62.5,60.5,29.94,NNE,29,6.0,9.0,93,0.00,,,0.01,VWS V14.00,2013-10-10 00:59:00,
2013-10-09 21:04:00,62.5,60.5,29.94,NNE,28,4.0,6.0,93,0.00,,,0.01,VWS V14.00,2013-10-10 01:04:00,
2013-10-09 21:09:00,62.4,60.3,29.94,NE,43,8.0,8.0,93,0.00,,,0.01,VWS V14.00,2013-10-10 01:09:00,
2013-10-09 21:14:00,62.4,60.3,29.94,ENE,63,5.0,6.0,93,0.00,,,0.01,VWS V14.00,2013-10-10 01:14:00,
2013-10-09 21:20:00,62.3,60.2,29.94,NNE,26,4.0,7.0,93,0.00,,,0.01,VWS V14.00,2013-10-10 01:20:00,
2013-10-09 21:25:00,62.3,60.2,29.94,NNE,32,4.0,7.0,93,0.00,,,0.01,VWS V14.00,2013-10-10 01:25:00,
2013-10-09 21:30:00,62.2,60.2,29.95,North,9,2.0,7.0,93,0.00,,,0.01,VWS V14.00,2013-10-10 01:30:00,
2013-10-09 21:35:00,62.2,59.8,29.95,NNE,32,4.0,8.0,92,0.00,,,0.01,VWS V14.00,2013-10-10 01:35:00,
2013-10-09 21:40:00,62.2,59.8,29.95,NNE,28,4.0,8.0,92,0.00,,,0.01,VWS V14.00,2013-10-10 01:40:00,
2013-10-09 21:45:00,62.2,60.2,29.95,NNE,32,5.0,6.0,93,0.00,,,0.01,VWS V14.00,2013-10-10 01:45:00,
2013-10-09 21:50:00,62.1,60.1,29.95,NE,47,11.0,11.0,93,0.00,,,0.01,VWS V14.00,2013-10-10 01:50:00,
2013-10-09 21:55:00,62.1,60.1,29.95,NNE,28,5.0,6.0,93,0.00,,,0.01,VWS V14.00,2013-10-10 01:55:00,
2013-10-09 22:00:00,62.0,60.0,29.95,NNE,17,4.0,9.0,93,0.00,,,0.01,VWS V14.00,2013-10-10 02:00:00,
2013-10-09 22:05:00,62.0,60.0,29.95,NNE,30,4.0,5.0,93,0.00,,,0.01,VWS V14.00,2013-10-10 02:05:00,
2013-10-09 22:11:00,62.0,60.0,29.95,NNE,25,5.0,9.0,93,0.00,,,0.01,VWS V14.00,2013-10-10 02:11:00,
2013-10-09 22:16:00,61.9,59.9,29.95,NNE,19,3.0,7.0,93,0.00,,,0.01,VWS V14.00,2013-10-10 02:16:00,
2013-10-09 22:21:00,61.9,59.9,29.95,North,5,4.0,9.0,93,0.00,,,0.01,VWS V14.00,2013-10-10 02:21:00,
2013-10-09 22:26:00,61.9,59.9,29.95,NE,36,5.0,10.0,93,0.00,,,0.01,VWS V14.00,2013-10-10 02:26:00,
2013-10-09 22:31:00,61.8,59.8,29.95,NNE,30,4.0,10.0,93,0.00,,,0.01,VWS V14.00,2013-10-10 02:31:00,
2013-10-09 22:36:00,61.8,59.8,29.95,NE,41,2.0,5.0,93,0.00,,,0.01,VWS V14.00,2013-10-10 02:36:00,
2013-10-09 22:41:00,61.8,59.8,29.95,North,11,3.0,3.0,93,0.00,,,0.01,VWS V14.00,2013-10-10 02:41:00,
2013-10-09 22:46:00,61.8,59.8,29.95,North,360,1.0,7.0,93,0.00,,,0.01,VWS V14.00,2013-10-10 02:46:00,
2013-10-09 22:51:00,61.7,59.7,29.95,NNE,19,5.0,5.0,93,0.00,,,0.01,VWS V14.00,2013-10-10 02:51:00,
2013-10-09 22:56:00,61.7,59.7,29.95,NE,35,5.0,10.0,93,0.00,,,0.01,VWS V14.00,2013-10-10 02:56:00,
2013-10-09 23:01:00,61.7,59.7,29.94,NNE,27,5.0,6.0,93,0.00,,,0.01,VWS V14.00,2013-10-10 03:01:00,
2013-10-09 23:07:00,61.7,59.7,29.94,NNE,30,6.0,7.0,93,0.00,,,0.01,VWS V14.00,2013-10-10 03:07:00,
2013-10-09 23:12:00,61.6,59.6,29.94,NNE,22,4.0,5.0,93,0.00,,,0.01,VWS V14.00,2013-10-10 03:12:00,
2013-10-09 23:17:00,61.6,59.6,29.94,NNE,32,4.0,7.0,93,0.00,,,0.01,VWS V14.00,2013-10-10 03:17:00,
2013-10-09 23:22:00,61.5,59.5,29.93,NE,44,3.0,5.0,93,0.00,,,0.01,VWS V14.00,2013-10-10 03:22:00,
2013-10-09 23:27:00,61.5,59.5,29.93,NE,37,3.0,9.0,93,0.00,,,0.01,VWS V14.00,2013-10-10 03:27:00,
2013-10-09 23:32:00,61.4,59.4,29.93,NNE,25,3.0,4.0,93,0.00,,,0.01,VWS V14.00,2013-10-10 03:32:00,
2013-10-09 23:37:00,61.4,59.4,29.93,NNE,22,5.0,9.0,93,0.00,,,0.01,VWS V14.00,2013-10-10 03:37:00,
2013-10-09 23:42:00,61.3,59.3,29.93,NNE,26,4.0,5.0,93,0.00,,,0.01,VWS V14.00,2013-10-10 03:42:00,
2013-10-09 23:47:00,61.3,59.3,29.93,ENE,59,8.0,8.0,93,0.00,,,0.01,VWS V14.00,2013-10-10 03:47:00,
2013-10-09 23:52:00,61.2,59.2,29.93,NE,34,3.0,6.0,93,0.00,,,0.01,VWS V14.00,2013-10-10 03:52:00,
2013-10-09 23:57:00,61.2,59.5,29.93,NNE,26,4.0,6.0,94,0.00,,,0.01,VWS V14.00,2013-10-10 03:57:00,